EW1440 Weather Reports


Display with metric or nautical units.
time (UTC)temp
F
wind
direction
speed
MPH
gust
MPH
rain 1hr
in
rain 24hr
in
rain mn
in
humidity
%
barometer
mb
20260905175033 88 169 4.0 10.0 0.00 0.00 0.00 68 1014.9
20260905174600 86 129 4.0 11.0 0.00 0.00 0.00 70 1015.0
20260905174033 86 112 6.0 12.0 0.00 0.00 0.00 72 1015.0
20260905173534 86 106 7.0 14.0 0.00 0.00 0.00 71 1015.0
20260905173118 85 126 8.0 14.0 0.00 0.00 0.00 71 1015.2
20260905172537 85 125 9.0 17.0 0.00 0.00 0.00 72 1015.2
20260905172035 86 135 9.0 17.0 0.00 0.00 0.00 71 1015.2
20260905171558 87 135 6.0 13.0 0.00 0.00 0.00 68 1015.2
20260905171035 87 137 6.0 13.0 0.00 0.00 0.00 67 1015.1
20260905170533 87 117 6.0 14.0 0.00 0.00 0.00 67 1015.2
20260905170108 89 116 6.0 14.0 0.00 0.00 0.00 63 1015.4
20260905165533 90 132 6.0 14.0 0.00 0.00 0.00 61 1015.3
20260905165034 90 122 4.0 12.0 0.00 0.00 0.00 63 1015.3
20260905164606 89 162 5.0 12.0 0.00 0.00 0.00 64 1015.3
20260905164032 88 126 4.0 12.0 0.00 0.00 0.00 66 1015.4
20260905163537 87 127 4.0 16.0 0.00 0.00 0.00 66 1015.4
20260905163103 88 105 7.0 16.0 0.00 0.00 0.00 65 1015.4
20260905162533 88 143 6.0 14.0 0.00 0.00 0.00 70 1015.5
20260905162033 87 155 6.0 14.0 0.00 0.00 0.00 70 1015.4
20260905161609 87 130 6.0 16.0 0.00 0.00 0.00 70 1015.4
20260905161034 86 89 8.0 16.0 0.00 0.00 0.00 73 1015.4
20260905160533 86 140 6.0 14.0 0.00 0.00 0.00 73 1015.4
20260905160056 88 147 8.0 14.0 0.00 0.00 0.00 69 1015.3
20260905155535 88 133 7.0 14.0 0.00 0.00 0.00 70 1015.3
20260905155033 87 145 6.0 15.0 0.00 0.00 0.00 73 1015.4
20260905154614 86 103 4.0 15.0 0.00 0.00 0.00 73 1015.4
20260905154034 86 116 5.0 15.0 0.00 0.00 0.00 72 1015.3
20260905153533 86 130 4.0 16.0 0.00 0.00 0.00 74 1015.3
20260905153057 85 135 7.0 16.0 0.00 0.00 0.00 74 1015.3
20260905152534 84 152 3.0 9.0 0.00 0.00 0.00 78 1015.2
20260905152034 83 199 4.0 12.0 0.00 0.00 0.00 78 1015.2
20260905151553 83 158 3.0 12.0 0.00 0.00 0.00 79 1015.3
20260905151033 83 131 6.0 12.0 0.00 0.00 0.00 80 1015.3
20260905150535 82 77 4.0 11.0 0.00 0.00 0.00 81 1015.3
20260905145530 83 155 6.0 11.0 0.00 0.00 0.00 80 1015.3
20260905145033 82 134 5.0 11.0 0.00 0.00 0.00 80 1015.3
20260905144555 83 133 5.0 12.0 0.00 0.00 0.00 80 1015.2
20260905144034 83 106 6.0 12.0 0.00 0.00 0.00 80 1015.3
20260905143532 82 155 4.0 10.0 0.00 0.00 0.00 81 1015.2
20260905143103 82 180 4.0 11.0 0.00 0.00 0.00 81 1015.2
20260905142531 82 124 6.0 11.0 0.00 0.00 0.00 82 1015.2
20260905142035 82 123 3.0 10.0 0.00 0.00 0.00 82 1015.2
20260905141555 81 137 5.0 11.0 0.00 0.00 0.00 83 1015.1
20260905141031 81 151 4.0 11.0 0.00 0.00 0.00 83 1015.1
20260905140535 81 150 5.0 8.0 0.00 0.00 0.00 84 1015.1
20260905140059 81 143 4.0 8.0 0.00 0.00 0.00 85 1015.1
20260905135535 80 118 1.0 8.0 0.00 0.00 0.00 87 1015.1
20260905135034 79 154 3.0 8.0 0.00 0.00 0.00 89 1015.1
20260905134557 78 133 3.0 7.0 0.00 0.00 0.00 90 1015.0
20260905134034 78 124 2.0 7.0 0.00 0.00 0.00 90 1015.0
20260905133530 78 111 4.0 7.0 0.00 0.00 0.00 90 1014.9
20260905133105 77 100 2.0 8.0 0.00 0.00 0.00 90 1015.0
20260905132534 77 132 4.0 8.0 0.00 0.00 0.00 90 1014.9
20260905132034 77 140 1.0 5.0 0.00 0.00 0.00 90 1014.9
20260905131600 76 133 2.0 4.0 0.00 0.00 0.00 90 1014.8
20260905131033 76 0 0.0 0.0 0.00 0.00 0.00 89 1014.7
20260905130535 76 0 0.0 0.0 0.00 0.00 0.00 89 1014.7
20260905130055 75 0 0.0 0.0 0.00 0.00 0.00 88 1014.7
20260905125536 75 0 0.0 0.0 0.00 0.00 0.00 88 1014.6
20260905125034 75 0 0.0 0.0 0.00 0.00 0.00 88 1014.5
20260905124555 75 0 0.0 0.0 0.00 0.00 0.00 87 1014.4
20260905124036 75 0 0.0 0.0 0.00 0.00 0.00 87 1014.4
20260905123533 75 0 0.0 0.0 0.00 0.00 0.00 87 1014.3
20260905123109 75 0 0.0 0.0 0.00 0.00 0.00 87 1014.3
20260905122537 75 0 0.0 0.0 0.00 0.00 0.00 87 1014.2
20260905122033 75 0 0.0 0.0 0.00 0.00 0.00 87 1014.2
20260905121558 76 0 0.0 0.0 0.00 0.00 0.00 86 1014.2
20260905121035 76 0 0.0 0.0 0.00 0.00 0.00 86 1014.2
20260905120534 76 0 0.0 0.0 0.00 0.00 0.00 86 1014.2
20260905120059 76 0 0.0 0.0 0.00 0.00 0.00 86 1014.2
20260905115533 76 0 0.0 0.0 0.00 0.00 0.00 86 1014.1
20260905115033 76 0 0.0 0.0 0.00 0.00 0.00 86 1014.1
20260905114601 76 0 0.0 0.0 0.00 0.00 0.00 86 1014.0
20260905114033 76 0 0.0 0.0 0.00 0.00 0.00 86 1013.9
20260905113533 76 0 0.0 0.0 0.00 0.00 0.00 86 1013.9
20260905113101 76 0 0.0 0.0 0.00 0.00 0.00 85 1013.9
20260905112531 76 0 0.0 0.0 0.00 0.00 0.00 85 1013.8
20260905112036 76 0 0.0 0.0 0.00 0.00 0.00 85 1013.8
20260905111558 76 0 0.0 0.0 0.00 0.00 0.00 85 1013.7
20260905111034 76 0 0.0 0.0 0.00 0.00 0.00 85 1013.6
20260905110532 76 0 0.0 0.0 0.00 0.00 0.00 85 1013.6
20260905110055 76 0 0.0 0.0 0.00 0.00 0.00 85 1013.7
20260905105533 77 0 0.0 0.0 0.00 0.00 0.00 85 1013.8
20260905105033 77 0 0.0 0.0 0.00 0.00 0.00 85 1013.8
20260905104553 77 0 0.0 0.0 0.00 0.00 0.00 85 1013.7
20260905104031 77 0 0.0 0.0 0.00 0.00 0.00 85 1013.7
20260905103533 77 0 0.0 0.0 0.00 0.00 0.00 85 1013.7
20260905103104 77 0 0.0 2.0 0.00 0.00 0.00 85 1013.7
20260905102533 77 0 0.0 2.0 0.00 0.00 0.00 85 1013.6
20260905102034 77 0 0.0 2.0 0.00 0.00 0.00 84 1013.7
20260905101601 77 105 1.0 2.0 0.00 0.00 0.00 84 1013.8
20260905101035 77 0 0.0 1.0 0.00 0.00 0.00 84 1014.0
20260905100534 77 0 0.0 0.0 0.00 0.00 0.00 83 1013.9
20260905100122 77 0 0.0 0.0 0.00 0.00 0.00 83 1013.8
20260905095533 77 0 0.0 0.0 0.00 0.00 0.00 83 1013.7
20260905095033 77 0 0.0 1.0 0.00 0.00 0.00 83 1013.7
20260905094556 78 0 0.0 1.0 0.00 0.00 0.00 84 1013.7
20260905094033 78 0 0.0 0.0 0.00 0.00 0.00 84 1013.7
20260905093532 78 0 0.0 1.0 0.00 0.00 0.00 84 1013.8
20260905093056 78 0 0.0 2.0 0.00 0.00 0.00 83 1013.9
20260905092535 78 0 0.0 2.0 0.00 0.00 0.00 83 1013.7
20260905092034 78 0 0.0 2.0 0.00 0.00 0.00 83 1013.6
20260905091558 78 105 1.0 2.0 0.00 0.00 0.00 83 1013.5
20260905091031 78 105 0.0 2.0 0.00 0.00 0.00 83 1013.6
20260905090535 78 105 0.0 2.0 0.00 0.00 0.00 83 1013.6
20260905090059 78 105 1.0 2.0 0.00 0.00 0.00 83 1013.7
20260905085534 78 0 0.0 3.0 0.00 0.00 0.00 83 1013.7
20260905085034 78 0 1.0 3.0 0.00 0.00 0.00 83 1013.7
20260905084601 78 105 0.0 3.0 0.00 0.00 0.00 83 1013.7
20260905084034 78 105 1.0 3.0 0.00 0.00 0.00 83 1013.8
20260905083534 78 105 1.0 4.0 0.00 0.00 0.00 83 1013.7
20260905083109 78 105 2.0 5.0 0.00 0.00 0.00 82 1013.6
20260905082533 79 107 2.0 7.0 0.00 0.00 0.00 82 1013.7
20260905082037 79 133 3.0 7.0 0.00 0.00 0.00 82 1013.8
20260905081553 79 111 3.0 8.0 0.00 0.00 0.00 81 1013.8
20260905081033 79 104 3.0 8.0 0.00 0.00 0.00 81 1013.7
20260905080533 79 87 3.0 7.0 0.00 0.00 0.00 80 1013.7
20260905080059 79 111 2.0 6.0 0.00 0.00 0.00 80 1013.7
20260905075533 79 120 2.0 6.0 0.00 0.00 0.00 80 1013.8
20260905075034 79 130 3.0 7.0 0.00 0.00 0.00 80 1013.8
20260905074559 79 130 2.0 7.0 0.00 0.00 0.00 79 1014.0
20260905074032 80 114 3.0 7.0 0.00 0.00 0.00 79 1013.9
20260905073533 80 134 2.0 7.0 0.00 0.00 0.00 79 1013.9
20260905073059 80 111 2.0 8.0 0.00 0.00 0.00 79 1013.8
20260905072535 80 130 3.0 8.0 0.00 0.00 0.00 79 1013.9
20260905072033 80 122 2.0 7.0 0.00 0.00 0.00 78 1014.1
20260905071555 80 112 3.0 10.0 0.00 0.00 0.00 78 1014.1
20260905071033 80 151 4.0 10.0 0.00 0.00 0.00 78 1014.1
20260905070533 80 125 5.0 10.0 0.00 0.00 0.00 78 1014.1
20260905070054 80 111 5.0 10.0 0.00 0.00 0.00 78 1014.1
20260905065532 80 120 4.0 11.0 0.00 0.00 0.00 77 1014.0
20260905065033 80 106 4.0 11.0 0.00 0.00 0.00 77 1014.2
20260905064617 81 123 4.0 9.0 0.00 0.00 0.00 76 1014.3
20260905064033 81 177 3.0 11.0 0.00 0.00 0.00 76 1014.4
20260905063532 81 147 6.0 11.0 0.00 0.00 0.00 75 1014.3
20260905063055 81 147 4.0 10.0 0.00 0.00 0.00 75 1014.3
20260905062533 81 87 6.0 11.0 0.00 0.00 0.00 74 1014.1
20260905062033 81 127 6.0 12.0 0.00 0.00 0.00 74 1014.3
20260905061558 81 135 5.0 12.0 0.00 0.00 0.00 74 1014.3
20260905061033 81 158 7.0 13.0 0.00 0.00 0.00 73 1014.2
20260905060533 82 135 6.0 13.0 0.00 0.00 0.00 73 1014.2
20260905060050 82 145 6.0 15.0 0.00 0.00 0.00 72 1014.2
20260905055532 82 128 7.0 15.0 0.00 0.00 0.00 72 1014.2
20260905055033 82 132 6.0 14.0 0.00 0.00 0.00 71 1014.2
20260905054708 82 157 4.0 11.0 0.00 0.00 0.00 71 1014.1
20260905054032 82 137 6.0 12.0 0.00 0.00 0.00 70 1014.1
20260905053536 82 166 7.0 12.0 0.00 0.00 0.00 70 1014.1
20260905053057 82 144 5.0 12.0 0.00 0.00 0.00 70 1014.2
20260905052533 82 178 5.0 11.0 0.00 0.00 0.00 70 1014.2
20260905052034 82 162 3.0 8.0 0.00 0.00 0.00 70 1014.1
20260905051554 82 149 4.0 9.0 0.00 0.00 0.00 70 1014.2
20260905051031 83 135 5.0 11.0 0.00 0.00 0.00 69 1014.2
20260905050534 83 155 5.0 11.0 0.00 0.00 0.00 69 1014.2
20260905050051 83 154 4.0 11.0 0.00 0.00 0.00 68 1014.2
20260905045536 83 127 5.0 11.0 0.00 0.00 0.00 68 1014.3
20260905045033 83 114 4.0 15.0 0.00 0.00 0.00 68 1014.3
20260905044608 83 120 6.0 15.0 0.00 0.00 0.00 67 1014.3
20260905044032 83 160 8.0 14.0 0.00 0.00 0.00 67 1014.3
20260905043533 83 127 6.0 14.0 0.00 0.00 0.00 66 1014.2
20260905043102 83 146 5.0 14.0 0.00 0.00 0.00 66 1014.2
20260905042535 83 130 7.0 14.0 0.00 0.00 0.00 66 1014.3
20260905042033 83 152 8.0 13.0 0.00 0.00 0.00 65 1014.3
20260905041557 83 150 4.0 13.0 0.00 0.00 0.00 65 1014.2
20260905041034 83 165 7.0 12.0 0.00 0.00 0.00 65 1014.1
20260905040537 83 157 5.0 11.0 0.00 0.00 0.00 66 1014.1
20260905040110 83 141 5.0 13.0 0.00 0.00 0.00 66 1014.0
20260905035533 83 132 5.0 13.0 0.00 0.00 0.00 66 1014.1
20260905035033 83 128 7.0 14.0 0.00 0.00 0.00 66 1014.1
20260905034607 83 111 5.0 14.0 0.00 0.00 0.00 66 1014.1
20260905034032 83 106 8.0 12.0 0.00 0.00 0.00 66 1014.1
20260905033532 83 133 6.0 12.0 0.00 0.00 0.00 67 1014.0
20260905033056 83 121 6.0 14.0 0.00 0.00 0.00 67 1013.9
20260905032536 82 79 5.0 14.0 0.00 0.00 0.00 67 1013.9
20260905032036 82 102 6.0 14.0 0.00 0.00 0.00 67 1013.8
20260905031556 82 158 7.0 14.0 0.00 0.00 0.00 68 1013.8
20260905031032 82 87 6.0 14.0 0.00 0.00 0.00 68 1013.6
20260905030531 82 113 6.0 12.0 0.00 0.00 0.00 69 1013.7
20260905030059 81 115 6.0 10.0 0.00 0.00 0.00 69 1013.6
20260905025533 81 92 4.0 12.0 0.00 0.00 0.00 69 1013.6
20260905025033 81 97 5.0 12.0 0.00 0.00 0.00 69 1013.6
20260905024602 81 94 4.0 9.0 0.00 0.00 0.00 69 1013.4
20260905024033 81 99 4.0 11.0 0.00 0.00 0.00 69 1013.3
20260905023532 82 100 4.0 11.0 0.00 0.00 0.00 69 1013.3
20260905023057 82 91 3.0 7.0 0.00 0.00 0.00 68 1013.1
20260905022534 82 103 3.0 7.0 0.00 0.00 0.00 68 1013.1
20260905022033 83 80 2.0 4.0 0.00 0.00 0.00 68 1013.0
20260905021557 83 97 1.0 3.0 0.00 0.00 0.00 67 1012.9
20260905021033 83 97 2.0 3.0 0.00 0.00 0.00 66 1012.8
20260905020534 84 60 0.0 6.0 0.00 0.00 0.00 65 1012.8
20260905020058 84 0 1.0 6.0 0.00 0.00 0.00 65 1012.8
20260905015533 84 36 3.0 6.0 0.00 0.00 0.00 65 1012.9
20260905015035 85 54 3.0 6.0 0.00 0.00 0.00 64 1012.8
20260905014600 85 50 3.0 6.0 0.00 0.00 0.00 64 1012.8
20260905014035 85 54 3.0 7.0 0.00 0.00 0.00 64 1012.6
20260905013532 85 61 3.0 7.0 0.00 0.00 0.00 63 1012.6
20260905013102 86 75 3.0 7.0 0.00 0.00 0.00 63 1012.5
20260905012537 86 54 3.0 7.0 0.00 0.00 0.00 63 1012.5
20260905012034 86 46 3.0 6.0 0.00 0.00 0.00 63 1012.5
20260905011557 86 76 2.0 7.0 0.00 0.00 0.00 62 1012.5
20260905011032 86 58 2.0 7.0 0.00 0.00 0.00 62 1012.5
20260905010534 87 37 4.0 7.0 0.00 0.00 0.00 62 1012.6
20260905010104 87 66 2.0 7.0 0.00 0.00 0.00 62 1012.5
20260905005535 87 62 3.0 8.0 0.00 0.00 0.00 61 1012.5
20260905005035 87 50 4.0 8.0 0.00 0.00 0.00 61 1012.5
20260905004550 87 80 4.0 9.0 0.00 0.00 0.00 61 1012.4
20260905004034 87 62 4.0 9.0 0.00 0.00 0.00 60 1012.3
20260905003535 88 81 5.0 9.0 0.00 0.00 0.00 60 1012.4
20260905003059 88 48 4.0 10.0 0.00 0.00 0.00 60 1012.4
20260905002533 88 64 6.0 10.0 0.00 0.00 0.00 60 1012.3
20260905002032 88 87 4.0 12.0 0.00 0.00 0.00 60 1012.3
20260905001554 88 91 5.0 12.0 0.00 0.00 0.00 60 1012.4
20260905001032 88 57 3.0 10.0 0.00 0.00 0.00 60 1012.4
20260905000533 88 78 5.0 12.0 0.00 0.00 0.00 60 1012.3
20260905000051 88 83 4.0 12.0 0.00 0.00 0.00 58 1012.4
20260904235534 88 95 7.0 12.0 0.00 0.00 0.00 57 1012.4
20260904235033 88 72 7.0 11.0 0.00 0.00 0.00 57 1012.4
20260904234600 88 70 6.0 13.0 0.00 0.00 0.00 56 1012.2
20260904234036 89 81 6.0 15.0 0.00 0.00 0.00 55 1012.2
20260904233531 89 95 9.0 15.0 0.00 0.00 0.00 53 1012.2
20260904233058 89 112 9.0 16.0 0.00 0.00 0.00 52 1012.0
20260904232536 89 72 8.0 16.0 0.00 0.00 0.00 54 1011.9
20260904232034 89 83 9.0 15.0 0.00 0.00 0.00 55 1011.9
20260904231606 89 98 9.0 15.0 0.00 0.00 0.00 57 1011.8
20260904231033 89 76 8.0 14.0 0.00 0.00 0.00 60 1011.9
20260904230533 88 84 9.0 14.0 0.00 0.00 0.00 61 1011.8
20260904230057 88 89 8.0 14.0 0.00 0.00 0.00 63 1011.8
20260904225534 88 64 7.0 14.0 0.00 0.00 0.00 63 1011.9
20260904225033 88 66 6.0 15.0 0.00 0.00 0.00 66 1011.9
20260904224600 88 69 6.0 15.0 0.00 0.00 0.00 67 1011.9
20260904224033 88 77 8.0 15.0 0.00 0.00 0.00 68 1011.9
20260904223533 88 81 9.0 15.0 0.00 0.00 0.00 69 1012.0
20260904223049 87 66 7.0 17.0 0.00 0.00 0.00 70 1012.1
20260904222536 88 79 9.0 17.0 0.00 0.00 0.00 67 1012.1
20260904222032 89 80 9.0 17.0 0.00 0.00 0.00 64 1012.2
20260904221605 89 84 4.0 15.0 0.00 0.00 0.00 60 1012.3
20260904221035 89 124 9.0 15.0 0.00 0.00 0.00 57 1012.4
20260904220533 89 97 8.0 12.0 0.00 0.00 0.00 57 1012.5
20260904215535 89 103 8.0 16.0 0.00 0.00 0.00 60 1012.7
20260904215033 89 126 9.0 16.0 0.00 0.00 0.00 62 1012.6
20260904214600 88 86 6.0 12.0 0.00 0.00 0.00 65 1012.7
20260904214035 87 74 8.0 13.0 0.00 0.00 0.00 68 1012.8
20260904213534 86 99 7.0 14.0 0.00 0.00 0.00 70 1012.8
20260904213100 87 76 8.0 14.0 0.00 0.00 0.00 68 1012.8
20260904212532 88 67 8.0 14.0 0.00 0.00 0.00 65 1012.9
20260904212031 88 64 8.0 16.0 0.00 0.00 0.00 63 1012.9
20260904211607 89 48 8.0 16.0 0.00 0.00 0.00 61 1013.0
20260904211036 89 61 9.0 17.0 0.00 0.00 0.00 60 1013.0
20260904210534 90 64 10.0 17.0 0.00 0.00 0.00 57 1012.9
20260904210058 90 74 10.0 16.0 0.00 0.00 0.00 56 1012.9
20260904205534 91 97 7.0 15.0 0.00 0.00 0.00 56 1012.9
20260904205033 92 84 9.0 15.0 0.00 0.00 0.00 54 1012.9
20260904204554 93 106 7.0 15.0 0.00 0.00 0.00 53 1013.0
20260904204033 93 91 4.0 15.0 0.00 0.00 0.00 51 1013.0
20260904203533 93 115 9.0 17.0 0.00 0.00 0.00 51 1013.2
20260904203101 93 139 6.0 17.0 0.00 0.00 0.00 51 1013.1
20260904202533 93 108 6.0 17.0 0.00 0.00 0.00 52 1013.3
20260904202032 92 161 9.0 16.0 0.00 0.00 0.00 53 1013.2
20260904201559 91 70 7.0 12.0 0.00 0.00 0.00 55 1013.2
20260904201033 91 103 7.0 12.0 0.00 0.00 0.00 54 1013.3
20260904200533 91 126 6.0 12.0 0.00 0.00 0.00 54 1013.3
20260904200110 91 101 6.0 11.0 0.00 0.00 0.00 54 1013.4
20260904195538 91 78 7.0 13.0 0.00 0.00 0.00 54 1013.5
20260904195036 92 143 7.0 13.0 0.00 0.00 0.00 53 1013.5
20260904194555 92 75 9.0 13.0 0.00 0.00 0.00 55 1013.5
20260904194033 91 93 6.0 13.0 0.00 0.00 0.00 54 1013.5
20260904193533 92 162 7.0 13.0 0.00 0.00 0.00 54 1013.7
20260904193100 92 101 5.0 12.0 0.00 0.00 0.00 52 1013.7
20260904192534 92 53 5.0 12.0 0.00 0.00 0.00 54 1013.7
20260904192033 92 72 5.0 19.0 0.00 0.00 0.00 55 1013.8
20260904191558 92 80 8.0 21.0 0.00 0.00 0.00 54 1013.9
20260904191033 92 118 5.0 21.0 0.00 0.00 0.00 53 1013.8
20260904190532 93 83 5.0 15.0 0.00 0.00 0.00 53 1013.9
20260904190058 93 156 3.0 14.0 0.00 0.00 0.00 52 1013.8
20260904185535 93 139 7.0 15.0 0.00 0.00 0.00 52 1013.9
20260904185034 92 190 3.0 15.0 0.00 0.00 0.00 53 1013.9
20260904184604 93 152 5.0 18.0 0.00 0.00 0.00 53 1013.9
20260904184033 93 88 7.0 18.0 0.00 0.00 0.00 54 1014.0
20260904183536 92 130 4.0 14.0 0.00 0.00 0.00 54 1013.9
20260904183057 92 135 4.0 15.0 0.00 0.00 0.00 55 1014.1
20260904182544 92 0 4.0 15.0 0.00 0.00 0.00 55 1014.1
20260904182037 92 166 7.0 15.0 0.00 0.00 0.00 54 1014.2
20260904181555 92 129 5.0 13.0 0.00 0.00 0.00 54 1014.1
20260904181035 92 135 5.0 13.0 0.00 0.00 0.00 55 1014.3
20260904180537 92 155 4.0 14.0 0.00 0.00 0.00 55 1014.4
20260904180105 92 170 6.0 14.0 0.00 0.00 0.00 54 1014.5
20260904175534 91 95 5.0 13.0 0.00 0.00 0.00 58 1014.7